Location: Unspecified
(0.0000°N, 0.0000°E)
Time: 23:53:11
(UTC+01:00)

ARIANE 5 R/B - Visible Passes

Search period start: 23 January 2017 00:00
Search period end: 02 February 2017 00:00
Orbit: 660 x 38442 km, 7.3° (Epoch: 22 January)

Date Brightness Start Highest point End Pass type
(mag) Time Alt. Az. Time Alt. Az. Time Alt. Az.
23 Jan 6.9 21:54:49 10° W 22:09:09 76° N 08:56:27 10° E visible
24 Jan 6.2 20:57:16 10° W 21:06:55 75° N 07:57:16 10° E visible
25 Jan 5.4 19:59:55 10° W 20:06:45 74° N 06:56:50 10° E visible
26 Jan 4.7 19:02:39 10° W 19:07:44 76° N 19:39:16 10° E visible
27 Jan 10.2 23:02:47 10° E 03:13:48 37° E 04:48:10 10° E visible
28 Jan 10.4 23:47:47 10° E 02:16:29 23° E 03:33:09 10° E visible
30 Jan 9.4 05:35:49 18° W 06:11:51 19° W 08:15:01 10° W visible
31 Jan 9.1 03:42:32 10° W 05:15:04 34° W 09:02:57 10° W visible
01 Feb 8.8 02:34:49 10° W 04:17:15 48° W 09:48:21 10° W visible
